[[{"header":{"parameterUnit":"m.s-1","parameterCategory":1,"la1":30.2991,"la2":30.254,"lo1":-89.0895,"lo2":-89.0444,"dy":0.0017,"dx":0.0017,"nx":28,"ny":28,"refTime":"2023-09-17T21:00:00:Z","depth":0,"parameterNumber":2,"parameterNumberName":"U-component_of_WINDS"},"data":[0,0,0,0,0,0,0,0,0,0,0,0,0,0,0,0,0,0,0,0,0,0,0,0,0,0,0,0,0,0,0,0,0,0,0,0,0,0,0,0,0,0,0,0,0,0,0,0,0,0,0,0,0,0,0,0,0,0,-3.7863,-3.7866,0,-3.8161,-3.8164,-3.8168,-3.8257,-3.8255,-3.8254,-3.8252,-3.8555,-3.8564,-3.8573,0,0,0,0,0,0,0,0,0,0,0,0,0,-3.7369,-3.7378,-3.7863,-3.7866,-3.787,-3.816,-3.8164,-3.8168,-3.8257,-3.8255,-3.8253,-3.8252,-3.8551,-3.8563,-3.8574,0,0,0,0,0,0,0,0,0,0,0,0,0,-3.7617,-3.7381,-3.7862,-3.7949,-3.796,-3.8159,-3.8165,-3.817,-3.8257,-3.8255,-3.8253,-3.8251,-3.8548,-3.8561,-3.8575,-3.8708,0,0,-3.8619,-3.8625,0,0,0,0,0,0,0,0,-3.7603,-3.7635,-3.7933,-3.7944,-3.7956,-3.8169,-3.8101,-3.835,-3.8258,-3.8144,-3.8252,-3.825,-3.8428,-3.8452,-3.8513,-3.8723,-3.8736,-3.862,-3.8629,-3.8635,-3.8639,0,0,0,0,0,0,0,-3.7585,-3.7623,-3.7981,-3.7937,-3.7951,-3.7973,-3.8006,-3.8149,-3.8295,-3.8154,-3.8161,-3.8196,-3.8434,-3.8499,-3.852,-3.874,-3.862,-3.8632,-3.8641,-3.8647,-3.9074,-3.9077,0,0,0,0,0,0,-3.7554,-3.7608,-3.7971,-3.799,-3.777,-3.7984,-3.8021,-3.8103,-3.8294,-3.8321,-3.8197,-3.8199,-3.8476,-3.8504,-3.8531,-3.8699,-3.8635,-3.8648,-3.8656,-3.9072,-3.9075,-3.9078,0,0,0,0,0,0,-3.7543,-3.7585,-3.7959,-3.7801,-3.785,-3.7995,-3.8087,-3.811,-3.8175,-3.8327,-3.8353,-3.8237,-3.8475,-3.8511,-3.8664,-3.8711,-3.8654,-3.8667,-3.9068,-3.9073,-3.9077,-3.9035,0,0,0,0,0,0,-3.7528,-3.7581,-3.7633,-3.7801,-3.7858,-3.8087,-3.809,-3.8118,-3.82,-3.8204,-3.837,-3.8396,-3.8476,-3.8642,-3.8678,-3.8729,-3.8678,-3.9065,-3.907,-3.9075,-3.9033,-3.9037,-3.9041,0,0,0,0,0,-3.751,-3.7609,-3.7635,-3.7678,-3.7926,-3.8089,-3.8122,-3.8213,-3.8203,-3.8256,-3.8354,-3.839,-3.8701,-3.8657,-3.8698,-3.8754,-3.9062,-3.9069,-3.9075,-3.9031,-3.9036,-3.9041,0,0,0,0,0,0,-3.744,-3.7632,-3.7663,-3.7819,-3.7938,-3.8104,-3.8174,-3.8216,-3.8338,-3.8337,-3.8445,-3.8482,-3.8626,-3.8706,-3.8655,-3.8893,-3.8883,-3.8897,-3.8835,-3.8841,-3.8845,-3.8822,-3.869,0,0,0,0,0,-3.7443,-3.756,-3.7722,-3.7843,-3.7901,-3.8027,-3.8102,-3.8162,-3.8288,-3.8338,-3.8447,-3.8567,-3.8692,-3.8772,-3.8895,-3.9046,-3.9083,-3.9105,-3.9109,-3.9112,-3.9122,-3.9208,-3.9219,-3.9099,-3.9099,-3.9099,0,0,-3.745,-3.7569,-3.7636,-3.7832,-3.7931,-3.8049,-3.8068,-3.8192,-3.8281,-3.8357,-3.8507,-3.8592,-3.8734,-3.8885,-3.8958,-3.8957,-3.9164,-3.912,-3.9121,-3.913,-3.9215,-3.9226,-3.9236,-3.9104,-3.9103,-3.9102,0,0,-3.7521,-3.7624,-3.7737,-3.7836,-3.7986,-3.8069,-3.8096,-3.8258,-3.8317,-3.847,-3.853,-3.8637,-3.8849,-3.8948,-3.9026,-3.9138,-3.9175,-3.9175,-3.9195,-3.9277,-3.9287,-3.9295,-3.9334,-3.9346,-3.9186,-3.9186,-3.9186,0,-3.751,-3.7691,-3.7789,-3.791,-3.7995,-3.8072,-3.8186,-3.8277,-3.8459,-3.8515,-3.8512,-3.8781,-3.8882,-3.9058,-3.9085,-3.9147,-3.918,-3.9155,-3.9278,-3.9288,-3.9297,-3.9335,-3.9349,-3.9185,-3.9185,-3.9185,-3.9185,0,-3.7669,-3.7793,-3.7866,-3.8041,-3.8134,-3.8251,-3.8367,-3.8449,-3.8503,-3.8586,-3.8741,-3.8866,-3.9016,-3.9063,-3.9116,-3.9247,-3.9241,-3.9257,-3.9247,-3.9306,-3.9343,-3.9358,-3.9183,-3.9183,-3.9184,-3.9184,0,0,-3.7701,-3.793,-3.7955,-3.8035,-3.8207,-3.8305,-3.8427,-3.8574,-3.8642,-3.8766,-3.8869,-3.9049,-3.9065,-3.9153,-3.9218,-3.9291,-3.937,-3.9298,-3.9303,-3.9304,-3.952,-3.9505,-3.952,-3.9398,-3.9401,-3.9403,-3.9508,0,-3.7792,-3.8011,-3.8105,-3.8281,-3.8396,-3.8473,-3.8578,-3.8695,-3.8777,-3.8888,-3.8979,-3.9104,-3.9116,-3.917,-3.9246,-3.9344,-3.9414,-3.9338,-3.9493,-3.9497,-3.9451,-3.954,-3.9525,-3.9617,-3.9523,-3.9526,-3.9527,0,-3.7927,-3.8052,-3.824,-3.8399,-3.8451,-3.8544,-3.8687,-3.8792,-3.8927,-3.8982,-3.9082,-3.9144,-3.9273,-3.9259,-3.9438,-3.9385,-3.9454,-3.9513,-3.9519,-3.9534,-3.9513,-3.9555,-3.9649,-3.9661,-3.9552,-3.955,-3.9548,0,-3.7929,-3.8145,-3.8285,-3.8352,-3.8541,-3.8605,-3.8686,-3.8819,-3.8902,-3.9028,-3.9082,-3.9221,-3.9296,-3.9402,-3.95,-3.9481,-3.967,-3.9664,-3.9718,-3.9716,-3.9752,-3.9747,-3.9855,-3.9801,-3.9801,-3.9801,-3.9801,0,-3.8019,-3.813,-3.8288,-3.8374,-3.8501,-3.8608,-3.8731,-3.8818,-3.8936,-3.904,-3.9115,-3.9211,-3.9336,-3.9448,-3.9526,-3.9662,-3.9696,-3.9743,-3.9762,-3.9735,-3.9728,-3.9779,-3.9774,-3.9805,-3.9804,-3.9803,-3.9802,0,-3.804,-3.8151,-3.8309,-3.8476,-3.8521,-3.8607,-3.875,-3.8836,-3.8923,-3.9054,-3.9091,-3.9228,-3.9363,-3.9473,-3.965,-3.9703,-3.9845,-3.9868,-3.9799,-3.9808,-3.9856,-3.9848,-3.9997,-4.0021,-3.9953,-3.9954,-3.9954,0,-3.8089,-3.8177,-3.8354,-3.8429,-3.851,-3.8631,-3.8717,-3.8826,-3.8912,-3.9073,-3.9139,-3.9281,-3.94,-3.9613,-3.9728,-3.9864,-3.9889,-3.9932,-3.991,-3.988,-3.9887,-3.9879,-3.9888,-3.9933,-3.9933,-3.9933,-3.9933,0,-3.8163,-3.8214,-3.8335,-3.8475,-3.8575,-3.8691,-3.8808,-3.8866,-3.8997,-3.909,-3.923,-3.9322,-3.9504,-3.9643,-3.9792,-3.9876,-3.9926,-3.994,-3.9959,-3.9931,-3.9886,-3.9909,-3.9802,-3.9935,-3.9935,-3.9935,-3.9935,-3.9935,-3.8199,-3.828,-3.8417,-3.8549,-3.865,-3.8758,-3.8847,-3.8947,-3.9066,-3.9222,-3.9281,-3.9424,-3.9558,-3.9763,-3.9848,-3.9962,-3.9966,-3.9995,-4.0002,-4.0006,-4.0002,-3.9871,-3.999,-3.999,-3.999,-3.999,-3.999,0,-3.8275,-3.8368,-3.8488,-3.865,-3.8754,-3.8795,-3.8928,-3.9011,-3.9137,-3.9258,-3.9374,-3.9535,-3.9671,-3.9798,-3.994,-4.0006,-4.0033,-4.004,-4.0034,-4.0053,-3.9991,-3.9959,-4.0016,-4.0016,-4.0016,-4.0016,-4.0016,-4.0016,-3.8326,-3.8465,-3.8533,-3.8723,-3.8815,-3.8957,-3.9029,-3.9129,-3.9226,-3.9403,-3.9516,-3.9599,-3.9723,-3.9875,-4.0001,-4.0035,-4.0083,-4.0083,-4.0122,-4.0061,-4.0057,-4.0053,-4.0023,-4.0093,-4.0093,-4.0175,-4.0175,-4.0176]},{"header":{"parameterUnit":"m.s-1","parameterCategory":1,"la1":30.2991,"la2":30.254,"lo1":-89.0895,"lo2":-89.0444,"dy":0.0017,"dx":0.0017,"nx":28,"ny":28,"refTime":"2023-09-17T21:00:00:Z","depth":0,"parameterNumber":3,"parameterNumberName":"V-component_of_WINDS"},"data":[0,0,0,0,0,0,0,0,0,0,0,0,0,0,0,0,0,0,0,0,0,0,0,0,0,0,0,0,0,0,0,0,0,0,0,0,0,0,0,0,0,0,0,0,0,0,0,0,0,0,0,0,0,0,0,0,0,0,-0.4414,-0.4415,0,-0.4508,-0.451,-0.4511,-0.4544,-0.4544,-0.4544,-0.4544,-0.4636,-0.4638,-0.4641,0,0,0,0,0,0,0,0,0,0,0,0,0,-0.4259,-0.4262,-0.4414,-0.4415,-0.4416,-0.4508,-0.451,-0.4511,-0.4545,-0.4544,-0.4544,-0.4543,-0.4635,-0.4638,-0.4641,0,0,0,0,0,0,0,0,0,0,0,0,0,-0.4337,-0.4263,-0.4414,-0.4444,-0.4448,-0.4508,-0.451,-0.4511,-0.4545,-0.4544,-0.4544,-0.4543,-0.4634,-0.4638,-0.4642,-0.4677,0,0,-0.4655,-0.4656,0,0,0,0,0,0,0,0,-0.4333,-0.4343,-0.4439,-0.4442,-0.4447,-0.4514,-0.4489,-0.4567,-0.4545,-0.4508,-0.4544,-0.4543,-0.4595,-0.4603,-0.4621,-0.4681,-0.4685,-0.4655,-0.4657,-0.4659,-0.466,0,0,0,0,0,0,0,-0.4327,-0.4339,-0.4451,-0.444,-0.4445,-0.4452,-0.4463,-0.4504,-0.4553,-0.4511,-0.4514,-0.4525,-0.4598,-0.4617,-0.4624,-0.4687,-0.4655,-0.4658,-0.4661,-0.4663,-0.4782,-0.4782,0,0,0,0,0,0,-0.4317,-0.4334,-0.4448,-0.4454,-0.4388,-0.4455,-0.4467,-0.4493,-0.4553,-0.4561,-0.4525,-0.4526,-0.461,-0.4619,-0.4627,-0.4674,-0.4659,-0.4663,-0.4665,-0.4781,-0.4782,-0.4783,0,0,0,0,0,0,-0.4314,-0.4327,-0.4444,-0.4395,-0.4411,-0.4459,-0.4487,-0.4495,-0.4515,-0.4563,-0.4572,-0.4536,-0.461,-0.4621,-0.4665,-0.4677,-0.4665,-0.4669,-0.478,-0.4781,-0.4782,-0.4766,0,0,0,0,0,0,-0.4309,-0.4326,-0.434,-0.4395,-0.4413,-0.4482,-0.4488,-0.4497,-0.4523,-0.4525,-0.4576,-0.4584,-0.4611,-0.4659,-0.4669,-0.4683,-0.4672,-0.4779,-0.4781,-0.4782,-0.4766,-0.4766,-0.4767,0,0,0,0,0,-0.4304,-0.433,-0.4341,-0.4354,-0.4432,-0.4482,-0.4492,-0.4524,-0.4523,-0.4538,-0.4569,-0.4583,-0.4674,-0.4663,-0.4675,-0.469,-0.4779,-0.478,-0.4782,-0.4765,-0.4766,-0.4767,0,0,0,0,0,0,-0.4274,-0.4338,-0.435,-0.4396,-0.4434,-0.4488,-0.4507,-0.4523,-0.456,-0.4561,-0.4596,-0.4608,-0.4649,-0.4674,-0.466,-0.4728,-0.4727,-0.4731,-0.471,-0.4712,-0.4712,-0.4706,-0.4675,0,0,0,0,0,-0.4273,-0.4309,-0.4363,-0.4398,-0.4416,-0.4459,-0.4481,-0.4503,-0.4542,-0.4558,-0.4592,-0.4629,-0.4667,-0.469,-0.4727,-0.4769,-0.4781,-0.4785,-0.4786,-0.4786,-0.4789,-0.4815,-0.4818,-0.4788,-0.4788,-0.4788,0,0,-0.427,-0.431,-0.433,-0.4393,-0.4424,-0.4461,-0.4472,-0.4509,-0.4536,-0.4563,-0.4608,-0.4634,-0.4678,-0.4721,-0.4742,-0.4743,-0.48,-0.4788,-0.4788,-0.4791,-0.4817,-0.482,-0.4822,-0.4789,-0.4789,-0.4789,0,0,-0.4284,-0.4318,-0.4352,-0.4384,-0.4433,-0.4461,-0.4469,-0.4522,-0.4541,-0.4587,-0.4608,-0.464,-0.4703,-0.4734,-0.4758,-0.4786,-0.48,-0.4797,-0.48,-0.4825,-0.4827,-0.4829,-0.4841,-0.4844,-0.48,-0.48,-0.48,0,-0.4275,-0.4332,-0.4366,-0.4404,-0.4431,-0.4459,-0.4494,-0.4523,-0.458,-0.4598,-0.4598,-0.468,-0.4711,-0.4763,-0.477,-0.4788,-0.4798,-0.4791,-0.4824,-0.4827,-0.4829,-0.4841,-0.4845,-0.4799,-0.4799,-0.4799,-0.4799,0,-0.4318,-0.4357,-0.4378,-0.4436,-0.4465,-0.4501,-0.454,-0.4565,-0.4584,-0.4612,-0.4658,-0.4697,-0.4743,-0.4757,-0.4774,-0.4812,-0.4811,-0.4817,-0.4818,-0.4831,-0.4842,-0.4847,-0.4798,-0.4799,-0.4799,-0.4799,0,0,-0.4315,-0.4394,-0.4401,-0.4428,-0.4485,-0.4515,-0.4552,-0.4599,-0.4621,-0.4659,-0.4691,-0.4745,-0.4752,-0.4779,-0.48,-0.4821,-0.4843,-0.4825,-0.4827,-0.4828,-0.4888,-0.4884,-0.4888,-0.4853,-0.4854,-0.4854,-0.4885,0,-0.4338,-0.4407,-0.444,-0.4494,-0.4532,-0.456,-0.4592,-0.463,-0.4657,-0.4692,-0.4721,-0.4759,-0.4765,-0.4782,-0.4804,-0.4836,-0.4856,-0.4834,-0.4882,-0.4884,-0.4872,-0.4894,-0.4889,-0.4916,-0.4889,-0.489,-0.489,0,-0.4373,-0.4415,-0.4474,-0.4528,-0.4545,-0.4574,-0.462,-0.4653,-0.4697,-0.4715,-0.4747,-0.4768,-0.4807,-0.4804,-0.4859,-0.4844,-0.4865,-0.4884,-0.4886,-0.4892,-0.4888,-0.4901,-0.4925,-0.4929,-0.4897,-0.4897,-0.4896,0,-0.4367,-0.4437,-0.4482,-0.4504,-0.4569,-0.4588,-0.4616,-0.4659,-0.4686,-0.4726,-0.4744,-0.4787,-0.4811,-0.4844,-0.4876,-0.4871,-0.4928,-0.4928,-0.4945,-0.4944,-0.4956,-0.4955,-0.4984,-0.4968,-0.4968,-0.4968,-0.4968,0,-0.4389,-0.4424,-0.4481,-0.4508,-0.4548,-0.4586,-0.4624,-0.4653,-0.4692,-0.4725,-0.4751,-0.4781,-0.4822,-0.4857,-0.4882,-0.4925,-0.4935,-0.4951,-0.4957,-0.4949,-0.4947,-0.4964,-0.4964,-0.4969,-0.4969,-0.4969,-0.4968,0,-0.4388,-0.4428,-0.4479,-0.4537,-0.4552,-0.4579,-0.4628,-0.4656,-0.4685,-0.4727,-0.4739,-0.4784,-0.4827,-0.4863,-0.4918,-0.4936,-0.498,-0.4987,-0.4966,-0.497,-0.4985,-0.4983,-0.5027,-0.5035,-0.5012,-0.5013,-0.5013,0,-0.44,-0.4429,-0.4491,-0.4516,-0.4544,-0.4584,-0.4612,-0.465,-0.4678,-0.4731,-0.4753,-0.4798,-0.4837,-0.4904,-0.4941,-0.4984,-0.4993,-0.5005,-0.4999,-0.4991,-0.4995,-0.4993,-0.4997,-0.5006,-0.5006,-0.5006,-0.5006,0,-0.4418,-0.4437,-0.4478,-0.4526,-0.456,-0.4599,-0.4639,-0.4658,-0.4703,-0.4733,-0.4779,-0.4809,-0.4868,-0.4913,-0.496,-0.4987,-0.5004,-0.5008,-0.5014,-0.5006,-0.4994,-0.5002,-0.4969,-0.5006,-0.5006,-0.5006,-0.5006,-0.5006,-0.4425,-0.4452,-0.4501,-0.4546,-0.4581,-0.4618,-0.4648,-0.4682,-0.4721,-0.4774,-0.4793,-0.484,-0.4884,-0.495,-0.4977,-0.5014,-0.5016,-0.5025,-0.5027,-0.5029,-0.5029,-0.4988,-0.5023,-0.5023,-0.5023,-0.5023,-0.5023,0,-0.4445,-0.4478,-0.452,-0.4576,-0.4612,-0.4627,-0.4673,-0.4701,-0.4743,-0.4783,-0.4822,-0.4875,-0.4919,-0.4961,-0.5007,-0.5028,-0.5037,-0.5039,-0.5038,-0.5045,-0.5024,-0.5014,-0.5031,-0.5031,-0.5031,-0.5031,-0.5031,-0.5031,-0.4459,-0.4507,-0.4532,-0.4597,-0.463,-0.4678,-0.4703,-0.4737,-0.477,-0.4829,-0.4867,-0.4895,-0.4936,-0.4986,-0.5027,-0.5038,-0.5054,-0.5054,-0.5067,-0.5047,-0.5046,-0.5044,-0.5036,-0.5057,-0.5057,-0.5085,-0.5085,-0.5085]}]]